When you browse on this site, cookies collect data to enhance your experience and personalize the content and advertising you see.
Visit our Privacy Policy to learn more. By continuing to use the site, you agree to this use of cookies and data.
  • In Hungary
  • List of Countries
  • For 7 days
  • Water Temperature
  • Weather Map
  • News
  • Weather Widgets
  • user-avatar
    Login

    Hourly Weather Adoni

    Today, 6 December, Friday

    Time Temperature Precipitation Wind Pressure Humidity
    00:00 +21°C° 0 mm 3 mps 721 mmHg 82%
    01:00 +21°C° 0 mm 3 mps 720 mmHg 83%
    02:00 +20°C° 0 mm 3 mps 719 mmHg 84%
    03:00 +20°C° 0 mm 3 mps 719 mmHg 84%
    04:00 +20°C° 0 mm 3 mps 719 mmHg 84%
    05:00 +20°C° 0 mm 2 mps 720 mmHg 83%
    06:00 +20°C° 0 mm 3 mps 720 mmHg 81%
    07:00 +21°C° 0 mm 3 mps 721 mmHg 79%
    08:00 +22°C° 0 mm 4 mps 721 mmHg 78%
    09:00 +23°C° 0 mm 4 mps 721 mmHg 72%
    10:00 +25°C° 0 mm 4 mps 721 mmHg 66%
    11:00 +27°C° 0 mm 4 mps 721 mmHg 60%
    12:00 +27°C° 0 mm 4 mps 720 mmHg 57%
    13:00 +28°C° 0 mm 4 mps 720 mmHg 54%
    14:00 +28°C° 0 mm 4 mps 719 mmHg 51%
    15:00 +28°C° 0 mm 4 mps 719 mmHg 56%
    16:00 +27°C° 0 mm 4 mps 719 mmHg 61%
    17:00 +26°C° 0 mm 3 mps 719 mmHg 66%
    18:00 +25°C° 0 mm 4 mps 719 mmHg 70%
    19:00 +23°C° 0 mm 4 mps 720 mmHg 73%
    20:00 +22°C° 0 mm 4 mps 720 mmHg 77%
    21:00 +22°C° 0 mm 4 mps 720 mmHg 79%
    22:00 +21°C° 0 mm 4 mps 720 mmHg 81%
    23:00 +21°C° 0 mm 4 mps 720 mmHg 83%

    Tomorrow, 7 December, Saturday

    Time Temperature Precipitation Wind Pressure Humidity
    00:00 +20°C° 0 mm 4 mps 720 mmHg 84%
    01:00 +20°C° 0 mm 3 mps 719 mmHg 84%
    02:00 +19°C° 0 mm 2 mps 719 mmHg 85%
    03:00 +19°C° 0 mm 3 mps 719 mmHg 85%
    04:00 +19°C° 0 mm 3 mps 719 mmHg 85%
    05:00 +18°C° 0 mm 3 mps 719 mmHg 85%
    06:00 +19°C° 0 mm 3 mps 720 mmHg 81%
    07:00 +20°C° 0 mm 3 mps 720 mmHg 77%
    08:00 +21°C° 0 mm 3 mps 721 mmHg 73%
    09:00 +22°C° 0 mm 3 mps 720 mmHg 68%
    10:00 +25°C° 0 mm 4 mps 720 mmHg 62%
    11:00 +26°C° 0 mm 4 mps 720 mmHg 57%
    12:00 +27°C° 0 mm 4 mps 719 mmHg 55%
    13:00 +28°C° 0 mm 4 mps 719 mmHg 54%
    14:00 +28°C° 0 mm 4 mps 718 mmHg 52%
    15:00 +27°C° 0 mm 4 mps 719 mmHg 58%
    16:00 +26°C° 0 mm 4 mps 719 mmHg 64%
    17:00 +25°C° 0 mm 4 mps 719 mmHg 69%
    18:00 +25°C° 0 mm 3 mps 719 mmHg 73%
    19:00 +24°C° 0 mm 3 mps 720 mmHg 76%
    20:00 +23°C° 0 mm 2 mps 720 mmHg 80%
    21:00 +23°C° 0 mm 2 mps 720 mmHg 81%
    22:00 +23°C° 0 mm 2 mps 720 mmHg 83%
    23:00 +23°C° 0 mm 2 mps 720 mmHg 85%

    Day after tomorrow, 8 December, Sunday

    Time Temperature Precipitation Wind Pressure Humidity
    00:00 +21°C° 0 mm 3 mps 720 mmHg 86%
    01:00 +21°C° 0 mm 3 mps 719 mmHg 88%
    02:00 +21°C° 0 mm 3 mps 719 mmHg 89%
    03:00 +20°C° 0 mm 3 mps 719 mmHg 90%
    04:00 +20°C° 0 mm 3 mps 719 mmHg 91%
    05:00 +20°C° 0 mm 3 mps 719 mmHg 92%
    06:00 +21°C° 0 mm 3 mps 719 mmHg 88%
    07:00 +22°C° 0 mm 4 mps 720 mmHg 85%
    08:00 +23°C° 0 mm 5 mps 721 mmHg 81%
    09:00 +25°C° 0.1 mm 5 mps 721 mmHg 77%
    10:00 +26°C° 0.1 mm 5 mps 721 mmHg 72%
    11:00 +27°C° 0.1 mm 5 mps 720 mmHg 68%
    12:00 +27°C° 0.1 mm 5 mps 720 mmHg 66%
    13:00 +28°C° 0.1 mm 5 mps 719 mmHg 65%
    14:00 +28°C° 0.1 mm 5 mps 719 mmHg 64%
    15:00 +27°C° 0.1 mm 5 mps 719 mmHg 66%
    16:00 +27°C° 0.1 mm 4 mps 719 mmHg 69%
    17:00 +26°C° 0.1 mm 4 mps 719 mmHg 71%
    18:00 +25°C° 0 mm 4 mps 719 mmHg 74%
    19:00 +25°C° 0 mm 4 mps 720 mmHg 77%
    20:00 +23°C° 0 mm 4 mps 720 mmHg 80%
    21:00 +22°C° 0 mm 4 mps 720 mmHg 80%
    22:00 +22°C° 0 mm 3 mps 720 mmHg 80%
    23:00 +21°C° 0 mm 3 mps 720 mmHg 80%

    9 December, Monday

    Time Temperature Precipitation Wind Pressure Humidity
    00:00 +21°C° 0 mm 3 mps 720 mmHg 81%
    01:00 +21°C° 0 mm 3 mps 719 mmHg 81%
    02:00 +21°C° 0 mm 3 mps 719 mmHg 81%
    03:00 +20°C° 0 mm 2 mps 719 mmHg 82%
    04:00 +20°C° 0 mm 2 mps 719 mmHg 84%
    05:00 +20°C° 0 mm 2 mps 719 mmHg 85%
    06:00 +21°C° 0 mm 3 mps 719 mmHg 83%
    07:00 +21°C° 0 mm 3 mps 720 mmHg 81%
    08:00 +22°C° 0 mm 3 mps 721 mmHg 78%
    09:00 +25°C° 0 mm 4 mps 721 mmHg 72%
    10:00 +26°C° 0 mm 4 mps 721 mmHg 65%
    11:00 +28°C° 0 mm 4 mps 720 mmHg 59%
    12:00 +28°C° 0 mm 4 mps 720 mmHg 57%
    13:00 +29°C° 0 mm 4 mps 719 mmHg 54%
    14:00 +29°C° 0 mm 4 mps 718 mmHg 52%
    15:00 +28°C° 0 mm 4 mps 718 mmHg 55%
    16:00 +28°C° 0 mm 3 mps 718 mmHg 59%
    17:00 +27°C° 0 mm 3 mps 718 mmHg 62%
    18:00 +26°C° 0 mm 3 mps 718 mmHg 65%
    19:00 +25°C° 0 mm 3 mps 719 mmHg 69%
    20:00 +24°C° 0 mm 3 mps 719 mmHg 73%
    21:00 +24°C° 0 mm 3 mps 719 mmHg 77%
    22:00 +22°C° 0 mm 3 mps 719 mmHg 81%
    23:00 +22°C° 0 mm 3 mps 719 mmHg 85%

    10 December, Tuesday

    Time Temperature Precipitation Wind Pressure Humidity
    00:00 +21°C° 0 mm 3 mps 719 mmHg 86%
    01:00 +21°C° 0 mm 3 mps 718 mmHg 87%
    02:00 +20°C° 0 mm 2 mps 718 mmHg 88%
    03:00 +20°C° 0 mm 2 mps 718 mmHg 89%
    04:00 +20°C° 0 mm 2 mps 718 mmHg 89%
    05:00 +20°C° 0 mm 2 mps 718 mmHg 90%
    06:00 +21°C° 0 mm 2 mps 719 mmHg 86%
    07:00 +21°C° 0 mm 2 mps 719 mmHg 81%
    08:00 +22°C° 0 mm 3 mps 720 mmHg 77%
    09:00 +25°C° 0 mm 3 mps 720 mmHg 70%
    10:00 +26°C° 0 mm 3 mps 720 mmHg 63%
    11:00 +27°C° 0 mm 3 mps 719 mmHg 56%
    12:00 +28°C° 0 mm 3 mps 719 mmHg 53%
    13:00 +29°C° 0 mm 3 mps 718 mmHg 50%
    14:00 +29°C° 0 mm 3 mps 717 mmHg 47%
    15:00 +28°C° 0 mm 3 mps 717 mmHg 51%
    16:00 +28°C° 0 mm 3 mps 717 mmHg 55%
    17:00 +27°C° 0 mm 3 mps 717 mmHg 59%
    18:00 +26°C° 0 mm 2 mps 717 mmHg 62%
    19:00 +25°C° 0 mm 2 mps 718 mmHg 66%
    20:00 +24°C° 0 mm 2 mps 718 mmHg 69%
    21:00 +24°C° 0 mm 3 mps 718 mmHg 74%
    22:00 +22°C° 0 mm 3 mps 718 mmHg 78%
    23:00 +22°C° 0 mm 3 mps 718 mmHg 82%

    11 December, Wednesday

    Time Temperature Precipitation Wind Pressure Humidity
    00:00 +21°C° 0 mm 3 mps 718 mmHg 84%
    01:00 +21°C° 0 mm 3 mps 717 mmHg 85%
    02:00 +21°C° 0 mm 2 mps 717 mmHg 87%
    03:00 +20°C° 0 mm 2 mps 717 mmHg 87%
    04:00 +20°C° 0 mm 2 mps 717 mmHg 87%
    05:00 +20°C° 0 mm 2 mps 717 mmHg 88%
    06:00 +21°C° 0 mm 2 mps 718 mmHg 83%
    07:00 +23°C° 0 mm 2 mps 718 mmHg 78%
    08:00 +24°C° 0 mm 3 mps 719 mmHg 73%
    09:00 +25°C° 0 mm 3 mps 719 mmHg 67%
    10:00 +26°C° 0 mm 3 mps 719 mmHg 60%
    11:00 +28°C° 0 mm 3 mps 719 mmHg 53%
    12:00 +28°C° 0 mm 3 mps 718 mmHg 50%
    13:00 +29°C° 0 mm 3 mps 717 mmHg 46%
    14:00 +29°C° 0 mm 3 mps 716 mmHg 43%
    15:00 +29°C° 0 mm 3 mps 716 mmHg 46%
    16:00 +28°C° 0 mm 2 mps 716 mmHg 48%
    17:00 +27°C° 0 mm 2 mps 716 mmHg 51%
    18:00 +26°C° 0 mm 2 mps 717 mmHg 54%
    19:00 +25°C° 0 mm 2 mps 717 mmHg 56%
    20:00 +24°C° 0 mm 2 mps 717 mmHg 59%
    21:00 +24°C° 0 mm 3 mps 718 mmHg 64%
    22:00 +22°C° 0 mm 3 mps 718 mmHg 69%
    23:00 +22°C° 0 mm 3 mps 718 mmHg 74%
    Show more